714  
ASUS44 KMAF 181110  
RWRMAF  
MIDLAND AREA WEATHER ROUNDUP  
NATIONAL WEATHER SERVICE MIDLAND TX  
600 AM CDT THU OCT 18 2018  
   
..IN SOUTHWEST TEXAS AND SOUTHEAST NEW MEXICO
 
 
 
CITY SKY/WX TMP DP RH WIND PRES REMARKS
 
ALPINE CLOUDY 41 41 99 NE3 30.41R  
ANDREWS DRIZZLE 43 43 100 E6 30.38R WCI 39  
ARTESIA CLOUDY 45 45 100 N10 30.39S WCI 39  
BIG SPRING CLOUDY 43 42 97 NE9 30.40S WCI 38  
CARLSBAD CLOUDY 45 44 97 N6 30.37S  
DRYDEN NOT AVBL  
FORT STOCKTON CLOUDY 43 43 100 NE5 30.37R  
GUAD PASS LGT RAIN 40 38 93 NE33 30.30S VSB<1/4 WCI 28  
HOBBS CLOUDY 45 43 93 NE7 30.37F  
LAMESA NOT AVBL  
MARFA N/A 42 41 96 NE5 30.36R WCI 39  
MIDLAND AIRPK N/A 45 45 100 NE8 30.38S FOG  
MIDLAND INTL CLOUDY 44 44 100 NE8 30.37R FOG WCI 39  
ODESSA LGT RAIN 43 42 97 E8 30.38R FOG WCI 38  
PECOS DRIZZLE 45 44 97 CALM 30.38S  
PRESIDIO CLOUDY 51 47 87 NE6 30.34S  
SEMINOLE RAIN 43 43 100 E8 30.41S WCI 39  
SNYDER LGT RAIN 44 44 100 NE10G16 30.40R WCI 38  
WINK LGT RAIN 45 44 97 NE5 30.36S  

   
..OTHER STATIONS IN TEXAS
 
 
 
CITY SKY/WX TMP DP RH WIND PRES REMARKS
 
ABILENE LGT RAIN 48 47 96 N5 30.40R FOG  
AMARILLO CLOUDY 49 40 71 SE10 30.43S  
AUSTIN CLOUDY 56 48 74 N12 30.29R  
BROWNSVILLE CLOUDY 60 60 100 NW17 30.14S  
CORPUS CHRISTI LGT RAIN 57 56 96 N16 30.20R FOG  
DALLAS FTW CLOUDY 56 51 84 N8 30.35S  
DEL RIO LGT RAIN 51 51 100 NW7 30.31S  
EL PASO LGT RAIN 50 45 83 E8 30.30S  
HOUSTON INT CLOUDY 57 57 100 NE10 30.23S  
LUBBOCK DRIZZLE 46 45 96 E13 30.38F  
SAN ANGELO CLOUDY 46 44 93 NE9 30.37S  
SAN ANTONIO CLOUDY 52 49 89 N12G20 30.28R  
WACO CLOUDY 54 51 90 N9 30.32S  
WICHITA FALLS PTCLDY 42 39 89 CALM 30.46R  

   
..OTHER LOCATIONS IN NEW MEXICO
 
 
 
CITY SKY/WX TMP DP RH WIND PRES REMARKS
 
ALAMOGORDO CLOUDY 50 41 71 CALM 30.33S  
ALBUQUERQUE CLOUDY 46 37 71 E13G23 30.35S  
CANNON AFB LGT RAIN 43 41 94 E6 30.41 FOG WCI 39  
CLOVIS LGT RAIN 43 42 97 E9 30.41F FOG WCI 38  
HOLLOMAN AFB CLOUDY 52 43 71 S6 30.34S  
ROSWELL LGT RAIN 45 44 97 NE6 30.38F  
RUIDOSO FOG 36 36 100 SE8 30.40F VSB 1/4 WCI 29  
SANTA FE CLOUDY 41 37 86 S9 30.39S WCI 35  
TRUTH OR CONSE CLOUDY 50 40 68 N9 30.31S  
TUCUMCARI LGT RAIN 45 43 93 CALM 30.40F FOG  

 
 
 
CLICK HERE TO GO TO PREVIOUS BULLETINS.

The Nexlab TX Page
The Nexlab NM Page Main Text Page